Home > Weather > Gunsan > Past weeks

Flag for South Korea Weather for the Past 2 Weeks in Gunsan, South Korea

Now
55 °F

Broken clouds.


Feels Like: 50 °F
Forecast: 54 / 64 °F
Wind: 24 mph from West

Location: Kunsan Ab

Current Time: May 3, 2016 at 4:52:22 PM

Latest Report: May 3, 2016 at 4:03 PM


Visibility: 8 mi

Pressure: 29.50 "Hg

Humidity: 82%

Dew Point: 50 °F

Location of GunsanLocation

Historic Weather in Gunsan — Graph

°F

Gunsan Temperature Yesterday

Maximum temperature yesterday: 79 °F (at 11:58 AM)
Minimum temperature yesterday: 58 °F (at 5:58 AM)
Average temperature yesterday: 66 °F

High & Low Weather Summary for the Past Weeks

 TemperatureHumidityPressure
High79 °F (May 2, 11:58 AM)100% (Apr 18, 3:58 PM)30.27 "Hg (Apr 18, 3:58 PM)
Low45 °F (Apr 19, 5:58 AM)25% (May 1, 8:58 AM)29.31 "Hg (May 3, 7:02 AM)
Average58 °F85%29.90 "Hg
* Reported Apr 18 3:58 PM — May 3 3:04 PM, Gunsan, Weather by CustomWeather, © 2016

Note: Actual official high and low records may vary slightly from our data, if they occured in-between our weather recording intervals... More about our weather records

Advertising

Gunsan Weather History for the Previous 24 Hours

Scroll right to see more
 ConditionsComfort  
Time TempWeatherWind HumidityBarometerVisibility
3:04 PM
Tue, May 3
57 °FPartly sunny.25 mph77%29.49 "Hg5 mi
1:58 PM56 °FOvercast.28 mph81%29.49 "Hg10 mi
12:58 PM55 °FPartly sunny.26 mph85%29.47 "Hg7 mi
11:58 AM55 °FOvercast.22 mph86%29.46 "Hg10 mi
10:58 AM56 °FFog.29 mph95%29.42 "Hg6 mi
8:58 AM61 °FHeavy rain. Fog.29 mph100%29.33 "Hg1 mi
7:58 AM67 °FLight rain. Mostly cloudy.21 mph91%29.32 "Hg10 mi
7:02 AM68 °FLight rain. Overcast.23 mph83%29.31 "Hg10 mi
6:58 AM67 °FOvercast.22 mph89%29.32 "Hg10 mi
6:02 AM66 °FCloudy.10 mph94%29.35 "Hg10 mi
5:58 AM66 °FMostly cloudy.13 mph94%29.37 "Hg10 mi
4:55 AM66 °FMostly cloudy.9 mph94%29.39 "Hg10 mi
3:58 AM66 °FRain. Mostly cloudy.17 mph94%29.47 "Hg7 mi
2:58 AM67 °FPassing clouds.22 mph89%29.50 "Hg10 mi
1:58 AM66 °FLight rain. Mostly cloudy.17 mph90%29.56 "Hg6 mi
1:03 AM66 °FLight rain. Fog.15 mph94%29.60 "Hg4 mi
12:58 AM66 °FHeavy rain. Fog.10 mph92%29.61 "Hg4 mi
11:58 PM
Mon, May 2
65 °FMostly cloudy.9 mph94%29.67 "Hg10 mi
10:58 PM65 °FLight rain. Overcast.10 mph93%29.71 "Hg7 mi
9:58 PM65 °FOvercast.10 mph90%29.74 "Hg10 mi
9:03 PM64 °FLight rain. Passing clouds.8 mph94%29.76 "Hg8 mi
8:58 PM65 °FLight rain. Partly cloudy.10 mph90%29.77 "Hg10 mi
8:03 PM64 °FLight rain. Overcast.6 mph94%29.75 "Hg7 mi
7:58 PM65 °FLight rain. Mostly cloudy.3 mph94%29.77 "Hg8 mi
6:58 PM67 °FLight rain. Broken clouds.7 mph86%29.78 "Hg8 mi
6:00 PM66 °FLight rain. Passing clouds.10 mph88%29.78 "Hg9 mi
4:58 PM68 °FLight rain. Partly sunny.14 mph84%29.81 "Hg6 mi
Weather by CustomWeather, © 2016

See weather overviewHow to use our weather pages